Location: Gombio
(44.5000°N, 10.4333°E)
Time: 04:10:51
(UTC+00:00)

Daily predictions for brighter satellites

Satellite Brightness Start Highest point End
(mag) Time Altitude Azimuth Time Altitude Azimuth Time Altitude Azimuth
Cosmos 1825 2.1 00:13:02 68° SE 00:13:18 72° E 00:17:04 10° NNE
Cosmos 540 Rocket 3.7 00:15:11 41° SSE 00:16:39 56° ESE 00:21:38 10° NNE
DELTA 2 R/B (1) 3.9 00:16:57 41° SSE 00:17:03 41° SSE 00:22:14 10° E
Cosmos 1408 3.0 00:19:18 49° W 00:19:27 50° WNW 00:23:03 10° N
NOSS 2-2 (E) 4.5 00:20:42 26° ESE 00:20:42 26° ESE 00:23:26 10° ENE
Cosmos 990 Rocket 3.9 00:16:00 10° NNW 00:21:10 67° WSW 00:22:37 45° S
SL-16 R/B 3.6 00:19:56 17° WSW 00:23:31 31° NW 00:28:31 10° N
Cosmos 405 Rocket 2.5 00:23:36 67° WSW 00:23:50 70° W 00:27:31 10° N
Cosmos 841 Rocket 3.8 00:23:03 39° SSE 00:24:41 56° ESE 00:29:43 10° NNE
Cosmos 1242 Rocket 3.7 00:21:40 10° N 00:25:04 38° ENE 00:26:09 30° ESE
Cosmos 2058 2.9 00:24:22 57° SSE 00:25:06 74° E 00:29:12 10° NNE
USA 229 DEB 3.8 00:22:35 27° SW 00:26:14 67° NW 00:33:04 10° NE
USA 229 3.8 00:22:43 28° SW 00:26:19 68° NW 00:33:10 10° NE
Cosmos 1656 Rocket 3.7 00:21:11 10° NNW 00:26:55 81° ENE 00:30:16 26° SSE
Cosmos 2221 2.7 00:22:46 10° N 00:27:03 65° E 00:28:24 41° SE
X-37B 0.9 00:28:47 62° ENE 00:28:47 62° ENE 00:31:32 10° E
Nadezhda 4 Rocket 3.9 00:30:48 35° S 00:33:37 83° E 00:39:45 10° N
NOSS 2-2 (C) 4.3 00:34:05 27° ESE 00:34:05 27° ESE 00:37:05 10° ENE
Cosmos 1898 Rocket 3.5 00:29:17 10° NNW 00:34:28 65° WSW 00:36:11 41° S
Cosmos 1937 Rocket 3.5 00:29:26 10° NNW 00:34:48 88° WSW 00:37:19 32° SSE
NOSS 3-1 (C) 4.4 00:31:11 15° WSW 00:35:17 39° NW 00:41:16 10° NNE
YAOGAN 11 4.1 00:35:34 48° SSW 00:36:37 66° WSW 00:41:07 10° NNW
Cosmos 2369 Rocket 2.3 00:31:24 10° NNW 00:36:59 56° WSW 00:38:58 37° SSW
USA 307 3.4 00:38:07 41° SSE 00:38:29 42° SE 00:42:30 10° ENE
Aureole 3 Rocket 3.9 00:34:53 10° N 00:38:46 48° E 00:41:59 21° SSE
CREW DRAGON DEMO-1 DEB 4.3 00:40:05 26° NNW 00:40:10 26° NNW 00:42:18 10° NE
SJ 16-02 3.3 00:37:39 10° WNW 00:40:01 15° W 00:40:01 15° W
ARGOS Delta rocket 4.3 00:38:45 10° NNE 00:44:14 68° E 00:46:49 32° S
NOSS 3-1 (A) 3.9 00:42:41 23° WSW 00:46:00 51° NW 00:52:13 10° NNE
ATLAS 5 CENTAUR R/B 1.9 00:48:04 37° SSE 00:48:49 41° ESE 00:52:52 10° NE
Cosmos 2263 4.3 00:45:05 10° NNW 00:50:40 59° WSW 00:53:06 32° S
CZ-4 R/B 4.1 00:47:17 10° N 00:51:50 55° WNW 00:53:33 35° SW
Helios 1B rocket 3.1 00:48:40 10° NNE 00:52:38 46° E 00:54:08 31° SSE
Cosmos 1814 Rocket 4.1 00:51:51 34° S 00:54:05 69° ESE 00:59:14 10° NNE
Cosmos 1633 2.8 00:53:22 44° SSE 00:54:10 58° E 00:57:37 10° NNE
USA 308 3.0 00:53:26 45° S 00:54:21 56° SE 00:58:32 10° ENE
ADEOS Rocket 4.1 00:47:29 10° SE 00:54:25 49° ENE 01:00:44 10° N
Cosmos 1932 4.4 00:50:02 10° NW 00:56:09 61° WSW 01:00:03 23° SSE
UNK 3.9 00:54:26 24° SSE 00:57:07 70° ENE 01:01:44 10° N
CZ-3B R/B 4.5 00:50:04 10° WNW 00:57:39 29° N 01:00:40 10° ENE
Helios 1A 3.6 01:00:06 36° WSW 01:00:47 39° W 01:04:45 10° NNW
Cosmos 1606 2.6 00:59:15 10° N 01:03:06 79° W 01:04:13 44° S
Cosmos 1570 Rocket 4.0 01:01:44 33° SSW 01:04:08 83° ESE 01:09:24 10° NNE
SL-16 R/B 2.5 00:59:52 20° SSE 01:04:22 88° WSW 01:10:36 10° NNW
Cosmos 1933 4.4 01:04:38 10° N 01:08:33 42° ENE 01:11:43 14° SE
Cosmos 372 Rocket 3.9 01:04:31 10° NNW 01:09:47 77° WSW 01:13:10 22° S
USA 290 2.1 01:11:15 56° S 01:11:50 83° ESE 01:15:04 10° NNE
USA 305 2.8 01:10:31 36° SW 01:12:10 83° SE 01:16:27 10° NE
CZ-4C R/B 4.1 01:11:43 10° SE 01:14:29 15° ESE 01:17:30 10° ENE
Cosmos 1092 Rocket 3.9 01:11:05 27° SSW 01:14:39 81° W 01:20:50 10° N
Lacrosse 4 Rocket 1.5 01:11:57 10° NNW 01:16:03 72° ENE 01:20:04 10° SE
Cosmos 2098 Rocket 4.0 01:15:09 28° SW 01:17:35 45° W 01:21:57 10° N
Cosmos 2208 Rocket 4.1 01:16:33 28° SSW 01:19:28 90° WNW 01:24:58 10° NNE
USA 267 4.4 01:19:19 21° SW 01:19:30 21° WSW 01:24:13 10° WNW
BREEZE-M R/B 2.5 01:18:12 33° SW 01:19:37 68° SSE 01:24:42 10° ENE
Meteor 2-19 Rocket 4.5 01:16:27 26° SSW 01:20:03 74° W 01:26:12 10° N
Resurs 1-4 Rocket 2.2 01:16:09 10° N 01:21:26 67° WNW 01:24:24 27° SSW
Cosmos 1437 Rocket 4.1 01:18:53 10° NW 01:21:55 22° W 01:22:18 22° W
Meteor 1-29 3.4 01:22:04 10° NNE 01:25:25 53° E 01:26:57 28° SSE
SL-4 R/B 3.9 01:23:33 10° NW 01:26:46 27° N 01:29:51 10° ENE
MINOTAUR 4 R/B 4.1 01:26:32 22° SSE 01:28:40 78° ENE 01:32:12 10° N
Landsat 4 4.0 01:27:32 10° NNE 01:31:17 59° ESE 01:33:22 24° S
NOSS 2-2 (D) 3.1 01:30:21 33° SW 01:31:43 68° NW 01:35:23 10° NNE
NPP 3.7 01:27:15 10° N 01:32:37 68° WNW 01:35:57 24° SSW
ADEOS II 2.2 01:27:50 10° NNE 01:33:07 74° ESE 01:36:49 20° S
Cosmos 921 Rocket 3.8 01:32:38 24° WSW 01:34:32 37° WNW 01:38:27 10° N
USA 306 3.0 01:32:05 24° WSW 01:34:35 71° NW 01:38:51 10° NE
Meteor 2-3 Rocket 3.8 01:31:29 19° S 01:35:31 77° E 01:41:06 10° NNE
Lacrosse 5 rocket 3.9 01:33:08 10° NNW 01:35:58 21° NNE 01:38:50 10° ENE
Cosmos 1943 4.4 01:33:25 15° WSW 01:37:16 31° NW 01:42:18 10° N
FALCON 9 DEB 2.9 01:34:16 10° WNW 01:37:40 72° SW 01:41:02 10° SE
CZ-2D R/B 2.6 01:35:06 10° N 01:40:05 47° WNW 01:43:15 21° SW
Alouette 2 Rocket 4.3 01:38:02 10° N 01:41:30 45° ENE 01:45:33 10° SSE
ASTEX 1 4.4 01:39:54 10° SSE 01:44:37 47° ENE 01:49:19 10° N
Cosmos 2151 3.3 01:44:56 25° SW 01:47:09 51° WNW 01:51:16 10° N
IDEFIX/ARIANE 42P 3.1 01:42:22 10° NNE 01:47:32 54° E 01:52:17 12° S
AQUA 4.2 01:47:34 10° N 01:52:12 51° WNW 01:55:17 20° SW
Cosmos 1437 4.3 01:54:00 10° NW 01:55:51 17° W 01:55:51 17° W
Meteor 1-26 Rocket 4.3 01:50:34 10° NNW 01:56:26 81° W 02:02:24 10° S
DELTA 2 R/B (1) 3.7 01:57:41 10° WSW 02:03:03 52° S 02:08:25 10° ESE
X-37B 0.5 02:01:50 10° W 02:05:00 66° SSW 02:08:09 10° ESE
CBERS-1 4.0 02:01:39 10° NNE 02:06:50 89° WNW 02:11:26 13° SSW
IRS-1D 3.5 02:01:55 10° N 02:07:03 72° WNW 02:11:14 15° SSW
BREEZE-M DEB (TANK) 2.6 02:04:54 10° WNW 02:07:07 42° NNE 02:09:44 10° E
Cosmos 1812 3.3 02:07:07 10° N 02:10:55 56° E 02:14:40 10° SSE
Cosmos 1553 Rocket 4.1 02:05:02 10° NNW 02:11:14 62° W 02:17:19 10° S
Cosmos 2292 Rocket 3.4 02:09:52 21° SW 02:11:26 36° WNW 02:14:13 10° N
SL-08 R/B 4.4 02:07:51 10° SE 02:12:18 46° ENE 02:16:51 10° N
CZ-2C R/B 4.4 02:11:29 10° NE 02:15:29 24° E 02:19:23 10° SSE
FALCON 9 DEB 3.5 02:13:29 10° NW 02:16:36 59° NNE 02:19:41 10° ESE
USA 281 3.2 02:10:07 10° SSE 02:16:43 86° WSW 02:23:20 10° NNW
Meteor 2-14 Rocket 4.5 02:11:39 12° SSW 02:17:15 70° W 02:23:24 10° N
S3M 4.0 02:11:09 10° N 02:17:21 82° W 02:23:34 10° S
GPS 2-04 Rocket1 4.0 02:15:43 17° SW 02:17:26 22° S 02:20:28 10° SE
Cosmos 1782 3.0 02:13:53 10° NNW 02:17:48 53° W 02:21:41 10° S
USA 307 3.9 02:14:25 10° W 02:18:28 42° NNW 02:22:32 10° NE
Meteor 2-21 Rocket 4.5 02:12:44 10° S 02:18:52 86° W 02:25:06 10° N
Cosmos 1271 Rocket 2.6 02:16:01 10° NNW 02:19:46 79° W 02:23:31 10° S
MSX 4.0 02:14:08 10° NNE 02:19:56 76° ESE 02:25:40 10° S
CZ-4C R/B 3.0 02:20:53 10° S 02:24:18 63° WSW 02:27:46 10° NNW
ERBS 2.2 02:24:39 15° SW 02:27:13 80° NW 02:30:28 10° NE
Helios 1B rocket 4.4 02:24:52 10° NNW 02:27:30 17° WNW 02:30:07 10° WSW
Cosmos 1328 Rocket 3.6 02:27:30 10° NNW 02:31:49 59° W 02:36:06 10° S
NOSS 3-2 (A) 4.3 02:25:15 10° NW 02:32:49 78° NE 02:41:25 10° SE
FALCON 9 DEB 2.7 02:30:28 10° WNW 02:33:33 70° SW 02:36:36 10° SE
ATLAS 5 CENTAUR R/B 3.1 02:30:12 10° W 02:33:36 25° NW 02:37:22 10° NNE
USA 308 4.2 02:30:33 10° W 02:34:29 36° NNW 02:38:27 10° NE
Cosmos 1743 Rocket 4.5 02:30:25 10° SSE 02:34:38 48° E 02:38:54 10° NNE
Spot 1 4.5 02:30:00 10° S 02:35:02 64° WSW 02:39:55 10° NNW
SeaSat 1 2.5 02:31:11 10° NNE 02:36:08 88° WNW 02:41:04 10° SSW
Meteor 1-10 Rocket 4.5 02:32:06 10° N 02:38:00 80° ENE 02:43:46 10° SSE
ADEOS Rocket 4.0 02:33:27 10° SSW 02:39:59 35° W 02:46:03 10° NNW
FALCON 9 DEB 2.7 02:37:19 10° WNW 02:40:26 80° SW 02:43:32 10° SE
Meteor 2-6 Rocket 4.3 02:34:54 10° NNW 02:40:48 76° W 02:46:31 10° S
FALCON 9 DEB 2.8 02:40:45 10° WNW 02:43:48 60° SW 02:46:50 10° SE
ALOS 4.3 02:40:19 10° NE 02:44:17 27° E 02:48:13 10° SSE
Cosmos 1980 Rocket 4.4 02:41:06 10° N 02:46:01 30° NE 02:50:54 10° ESE
Cosmos 1833 Rocket 3.2 02:41:49 10° S 02:47:20 60° ESE 02:52:54 10° NNE
SL-16 R/B 4.2 02:45:35 10° WSW 02:48:47 14° W 02:51:59 10° WNW
Cosmos 2228 Rocket 4.2 02:45:33 10° N 02:49:56 49° ENE 02:54:15 10° SSE
IRS-P3 4.3 02:46:23 10° N 02:51:39 64° WNW 02:56:54 10° SSW
Tianhe-1 2.8 02:49:52 10° SSW 02:52:19 21° SSE 02:54:48 10° ESE
Lacrosse 4 Rocket 3.3 02:53:05 10° W 02:54:04 11° WSW 02:55:03 10° WSW
Meteor 1-27 Rocket 4.2 02:48:30 10° N 02:54:05 67° ENE 02:59:33 10° SSE
Cosmos 1125 Rocket 4.4 02:49:47 10° NW 02:54:15 29° W 02:58:42 10° SSW
Cosmos 1151 Rocket 4.2 02:51:47 10° NNW 02:55:16 25° W 02:58:45 10° SW
Cosmos 2266 Rocket 4.2 02:50:17 10° SSW 02:56:14 54° WNW 03:02:11 10° N
CZ-4B R/B 3.7 02:54:12 10° N 02:59:27 71° WNW 03:04:37 10° SSW
Resurs 1-4 Rocket 4.3 02:59:03 10° NW 03:00:15 11° NW 03:01:27 10° WNW
ARIANE 5 R/B 2.6 02:55:39 10° N 03:00:35 64° WNW 03:05:32 10° SSW
CZ-4C R/B 2.1 02:57:05 10° SW 03:01:56 75° NW 03:07:50 10° NE
